Regional Weather Roundup
Issued by NWS

Home | Current Version | Previous Version | Graphics & Text | Print | Product List | Glossary On
Versions: 1 2 3 4 5 6 7 8 9 10 11 12 13 14 15 16 17 18 19 20 21 22 23 24 25 26 27 28 29 30 31 32 33 34 35 36 37 38 39 40 41 42 43 44 45 46 47 48 49 50
000
ASUS43 KFSD 271010
RWRSD

WEATHER ROUNDUP FOR SOUTH DAKOTA
NATIONAL WEATHER SERVICE SIOUX FALLS SD
500 AM CDT WED MAY 27 2015

NOTE: "FAIR" INDICATES FEW OR NO CLOUDS BELOW 12,000 FEET WITH NO
SIGNIFICANT WEATHER AND/OR OBSTRUCTIONS TO VISIBILITY.


SDZ001>005-009-010-012>017-271100-
NORTHWEST AND NORTH CENTRAL SOUTH DAKOTA

CITY           SKY/WX    TMP DP  RH WIND       PRES   REMARKS
BUFFALO          N/A     53  46  77 S3        29.90S
FAITH            N/A     53  44  71 S10       29.96S
MOBRIDGE       CLEAR     52  50  93 CALM      29.93R
$$

SDZ012>016-024>037-041>051-057-063-072>074-271100-
SOUTHWEST AND SOUTH CENTRAL SOUTH DAKOTA

CITY           SKY/WX    TMP DP  RH WIND       PRES   REMARKS
RAPID CTY ARPT MOCLDY    50  47  89 SE9       29.97S
PIERRE         CLEAR     50  46  86 CALM      29.95S
CUSTER         CLOUDY    44  42  93 S5        30.05R
ELLSWORTH AFB  MOCLDY    53  48  83 SE8       29.97S
PHILIP         PTCLDY    49  46  90 CALM      29.98R
PINE RIDGE     CLOUDY    55  49  80 SE10      30.02S
SPEARFISH      FAIR      54  46  76 S7        29.99S
WINNER         FAIR      59  45  59 SW7       29.99S
$$

SDZ004>011-016>023-039-040-271100-
NORTHEAST SOUTH DAKOTA

CITY           SKY/WX    TMP DP  RH WIND       PRES   REMARKS
ABERDEEN       CLEAR     54  49  83 CALM      29.91R
WATERTOWN      CLEAR     57  49  74 W7        29.91R
BROOKINGS      CLEAR     54  48  82 CALM      29.93R
SISSETON         N/A     61  49  64 NW9       29.86R
$$

SDZ017-020-022-023-036>040-048>070-271100-
SOUTHEAST SOUTH DAKOTA

CITY           SKY/WX    TMP DP  RH WIND       PRES   REMARKS
SIOUX FALLS    CLEAR     50  46  86 CALM      29.94R
HURON          CLEAR     53  48  83 W3        29.93R
CHAMBERLAIN    CLEAR     52  48  88 W6        29.97S
MITCHELL       CLEAR     56  50  80 W9        29.95R
YANKTON        PTCLDY    54  48  82 CALM      29.96R
$$

ABBREVIATIONS USED IN REMARKS
   TC - TEMPERATURE IN CELSIUS
  WCI - WIND CHILL INDEX
   HX - HEAT INDEX
  VSB - VISIBILITY



USA.gov is the U.S. government's official web portal to all federal, state and local government web resources and services.